User: anonymous   Login
Location: Gensac
(43.2177°N, 1.1313°E)
Time: 01:50:10
(UTC+00:00)
Language:

Cosmos 2195 Rocket - Orbit

View from above orbital plane
View from above orbital plane
View from above satellite
View from above satellite

Ground track
Ground track

The orbit is defined by the following mean orbital elements,

1 22007U          26042.12082154 +.00000000 +00000-0 +84591-4 0 00002
2 22007  82.9305 104.1953 0031727  99.2725 261.2023 13.78263297    01
Epoch (UTC): 11 February 2026 02:53:58
Eccentricity: 0.0031727
inclination: 82.9305°
perigee height: 947 km
apogee height: 993 km
right ascension of ascending node: 104.1953°
argument of perigee: 99.2725°
revolutions per day: 13.78263297
mean anomaly at epoch: 261.2023°

The dashed part of the orbit path shows where the satellite is in the earth's shadow,  

DLR